Location: Putah Creek Observatory
(38.7021°N, 122.3865°W)
Time: 17:26:28
(UTC-07:00)

Cosmos 372 Rocket - Pass Details

Date: 27 May 2018
Orbit: 738 x 769 km, 74.1° (Epoch: 19 October)

Event Time Altitude Azimuth Distance (km) Brightness Sun altitude
Rises 22:29:43 0° 340° (NNW) 3,194 8.5 -19.5°
Reaches altitude 10° 22:32:05 10° 340° (NNW) 2,262 7.5 -19.8°
Maximum altitude 22:37:12 83° 253° (WSW) 751 3.9 -20.4°
Enters shadow 22:38:58 42° 170° (S) 1,050 4.3 -20.6°
